Powrót do katalogu

RISAT 1

AktywnyNaukaPO
NORAD 38248·PAYLOAD·🇮🇳 India

Wystrzelony Apr 26, 2012 z Satish Dhawan Space Centre

Loading…

Następne Przeloty (najbliższe 24 godziny)

TLE

ŚwieżeSource: Space-Track

Epoka: Sep 14, 2026, 01:58 UTC

1 38248U 12017A   26257.08255329  .00083792  00000-0  49169-3 0  9993
2 38248  97.4221 310.5831 0003681 149.8001 210.3479 15.78035883796044

Śledź RISAT 1 w czasie rzeczywistym z AllMySat

Download on the App Store